Weather History for Billings, MT

Change the Weather History Date:

Saturday, November 10, 2012

  Actual Average Record
Temperature  
Mean Temperature 15 °F 38 °F  
Max Temperature 21 °F 48 °F 68 °F (2007)
Min Temperature 8 °F 28 °F -12 °F (1986)
Degree Days  
Heating Degree Days 50 27  
Month to date heating degree days 216 247  
Since 1 July heating degree days 861 999  
Cooling Degree Days 0 0  
Month to date cooling degree days 0 0  
Year to date cooling degree days 958 636  
Moisture  
Dew Point 12 °F    
Average Humidity 80    
Maximum Humidity 92    
Minimum Humidity 67    
Precipitation  
Precipitation 0.18 in 0.02 in 0.35 in (1966)
Month to date precipitation 0.32 0.22  
Year to date precipitation 6.54 12.75  
Snow  
Snow 3.60 in 0.10 in 4.60 in (1966)
Month to date snowfall 4.3 1.7  
Since 1 July snowfall 8.4 6.9  
Since 1 September snowfall 8.4 6.9  
Snow Depth 2.00 in    
Sea Level Pressure  
Sea Level Pressure 29.96 in    
Wind  
Wind Speed 8 mph (North)    
Max Wind Speed 15 mph    
Max Gust Speed 18 mph    
Visibility 4 miles    
Events Fog , Snow    
T = Trace of Precipitation, MM = Missing Value Source: NWS Daily Summary

Daily Weather History Graph

Daily Weather History Graph

Search for Another Location

Airport:

Trip Planner

Search our weather history database for the weather conditions in past years. The results will help you decide how hot, cold, wet, or windy it might be!

Date:

Astronomy

Nov. 10, 2012 Rise Set
Actual Time 7:07 AM MST 4:47 PM MST
Civil Twilight 6:35 AM MST 5:19 PM MST
Nautical Twilight 6:00 AM MST 5:55 PM MST
Astronomical Twilight 5:25 AM MST 6:30 PM MST
Moon 3:06 AM MST (11/10) 2:45 PM MST (11/10)
Length of Visible Light 10h 43m
Length of Day
9h 40m
Waning Crescent, 14% of the Moon is Illuminated
Nov 10
Waning Crescent
Nov 13
New
Nov 20
First Quarter
Nov 28
Full
Dec 6
Last Quarter

Hourly Weather History & Observations

Time (MST) Temp. Windchill Dew Point Humidity Pressure Visibility Wind Dir Wind Speed Gust Speed Precip Events Conditions
12:22 AM 21.2 °F 10.9 °F 17.6 °F 86% 29.80 in 2.5 mi North 9.2 mph - 0.00 in Snow Light Snow
12:29 AM 19.4 °F 9.5 °F 17.6 °F 93% 29.80 in 1.5 mi North 8.1 mph - 0.01 in Snow Light Snow
12:37 AM 19.4 °F 12.8 °F 17.6 °F 93% 29.81 in 1.0 mi NNE 4.6 mph - 0.01 in Snow Light Snow
12:53 AM 19.9 °F 12.1 °F 18.0 °F 92% 29.92 in 1.0 mi NE 5.8 mph - 0.02 in Snow Light Snow
1:53 AM 19.9 °F 12.1 °F 18.0 °F 92% 29.92 in 1.2 mi NE 5.8 mph - 0.03 in Snow Light Snow
2:13 AM 19.4 °F 11.5 °F 17.6 °F 93% 29.81 in 1.5 mi NE 5.8 mph - 0.00 in Snow Light Snow
2:22 AM 19.4 °F 11.5 °F 17.6 °F 93% 29.82 in 2.0 mi NE 5.8 mph - 0.01 in Snow Light Snow
2:53 AM 19.0 °F 12.3 °F 17.1 °F 92% 29.91 in 1.8 mi NNE 4.6 mph - 0.01 in Snow Light Snow
3:08 AM 19.4 °F 14.3 °F 17.6 °F 93% 29.81 in 1.8 mi North 3.5 mph - 0.01 in Snow Light Snow
3:24 AM 19.4 °F 10.4 °F 15.8 °F 86% 29.81 in 2.0 mi NNW 6.9 mph - 0.01 in Snow Light Snow
3:53 AM 19.0 °F 10.0 °F 16.0 °F 88% 29.95 in 3.0 mi NNW 6.9 mph - 0.01 in Snow Light Snow
4:33 AM 19.4 °F 8.6 °F 15.8 °F 86% 29.82 in 2.0 mi North 9.2 mph - 0.00 in Snow Light Snow
4:41 AM 19.4 °F 10.4 °F 15.8 °F 86% 29.83 in 1.0 mi North 6.9 mph - 0.01 in Snow Light Snow
4:53 AM 18.0 °F 8.7 °F 16.0 °F 92% 29.95 in 1.0 mi North 6.9 mph - 0.01 in Snow Light Snow
5:33 AM 17.6 °F 7.3 °F 15.8 °F 93% 29.84 in 1.5 mi North 8.1 mph - 0.02 in Snow Light Snow
5:53 AM 18.0 °F 8.7 °F 15.1 °F 88% 29.97 in 1.5 mi North 6.9 mph - 0.03 in Snow Light Snow
6:31 AM 17.6 °F 5.7 °F 14.0 °F 86% 29.85 in 1.0 mi North 10.4 mph - 0.00 in Snow Light Snow
6:53 AM 17.1 °F 6.6 °F 14.0 °F 88% 29.99 in 1.2 mi North 8.1 mph - 0.01 in Snow Light Snow
6:59 AM 17.6 °F 7.3 °F 14.0 °F 86% 29.85 in 1.5 mi North 8.1 mph - 0.00 in Snow Light Snow
7:20 AM 17.6 °F 9.3 °F 15.8 °F 93% 29.86 in 1.0 mi NNE 5.8 mph - 0.01 in Snow Light Snow
7:45 AM 17.6 °F 7.3 °F 14.0 °F 86% 29.87 in 1.8 mi North 8.1 mph - 0.02 in Snow Light Snow
7:53 AM 17.1 °F 6.6 °F 14.0 °F 88% 30.01 in 1.8 mi North 8.1 mph - 0.02 in Snow Light Snow
8:04 AM 17.6 °F 6.4 °F 14.0 °F 86% 29.88 in 1.8 mi NNE 9.2 mph - 0.00 in Snow Light Snow
8:19 AM 17.6 °F 6.4 °F 14.0 °F 86% 29.88 in 1.2 mi North 9.2 mph - 0.01 in Snow Light Snow
8:46 AM 15.8 °F 2.7 °F 12.2 °F 86% 29.88 in 0.8 mi NNE 11.5 mph - 0.01 in Snow Light Snow
8:53 AM 16.0 °F 4.4 °F 12.9 °F 88% 30.03 in 0.5 mi North 9.2 mph - 0.01 in Snow Light Snow
9:21 AM 15.8 °F 2.7 °F 12.2 °F 86% 29.88 in 0.5 mi NNE 11.5 mph - 0.01 in Fog , Snow Snow
9:53 AM 16.0 °F 3.6 °F 12.9 °F 88% 30.04 in 0.5 mi NNE 10.4 mph - 0.02 in Fog , Snow Snow
10:17 AM 15.8 °F 2.7 °F 12.2 °F 86% 29.90 in 1.5 mi North 11.5 mph - 0.00 in Snow Light Snow
10:27 AM 15.8 °F 3.4 °F 12.2 °F 86% 29.90 in 2.0 mi NNE 10.4 mph - 0.00 in Snow Light Snow
10:53 AM 16.0 °F 3.6 °F 12.0 °F 84% 30.06 in 2.0 mi NNE 10.4 mph - 0.00 in Snow Light Snow
11:53 AM 16.0 °F 2.9 °F 10.9 °F 81% 30.05 in 2.0 mi NNE 11.5 mph - 0.00 in Snow Light Snow
12:22 PM 17.6 °F 5.7 °F 12.2 °F 79% 29.90 in 3.0 mi North 10.4 mph - 0.01 in Snow Light Snow
12:53 PM 17.1 °F 5.8 °F 12.0 °F 81% 30.05 in 3.0 mi NNE 9.2 mph - 0.01 in Snow Light Snow
1:11 PM 17.6 °F 7.3 °F 12.2 °F 79% 29.90 in 2.0 mi NE 8.1 mph - 0.00 in Snow Light Snow
1:18 PM 17.6 °F 8.2 °F 12.2 °F 79% 29.90 in 3.0 mi NNE 6.9 mph - 0.00 in Snow Light Snow
1:41 PM 17.6 °F 8.2 °F 12.2 °F 79% 29.90 in 2.5 mi NNE 6.9 mph - 0.00 in Snow Light Snow
1:53 PM 17.1 °F 7.6 °F 12.0 °F 81% 30.05 in 2.5 mi North 6.9 mph - 0.00 in Snow Light Snow
2:16 PM 17.6 °F 8.2 °F 12.2 °F 79% 29.91 in 1.0 mi NNE 6.9 mph - 0.00 in Snow Light Snow
2:32 PM 17.6 °F 10.7 °F 12.2 °F 79% 29.91 in 1.8 mi North 4.6 mph - 0.00 in Snow Light Snow
2:42 PM 17.6 °F 9.3 °F 10.4 °F 73% 29.92 in 2.5 mi NNW 5.8 mph - 0.00 in Snow Light Snow
2:53 PM 16.0 °F 5.3 °F 10.9 °F 81% 30.07 in 7.0 mi NW 8.1 mph - 0.00 in Fog , Snow Light Snow
3:53 PM 12.9 °F 1.6 °F 7.0 °F 77% 30.10 in 10.0 mi WNW 8.1 mph - 0.00 in   Scattered Clouds
4:53 PM 10.0 °F -1.9 °F 5.0 °F 80% 30.13 in 10.0 mi West 8.1 mph - N/A   Scattered Clouds
5:53 PM 12.0 °F 1.5 °F 3.9 °F 70% 30.14 in 10.0 mi WSW 6.9 mph - N/A   Mostly Cloudy
6:53 PM 10.9 °F 2.9 °F 5.0 °F 77% 30.15 in 10.0 mi WSW 4.6 mph - N/A   Mostly Cloudy
7:53 PM 10.0 °F -1.9 °F 3.9 °F 76% 30.15 in 10.0 mi SW 8.1 mph - N/A   Mostly Cloudy
8:53 PM 8.6 °F - 1.4 °F 73% 29.97 in 10.0 mi Calm Calm - N/A   Scattered Clouds
9:53 PM 10.0 °F -3.7 °F 3.0 °F 73% 30.15 in 10.0 mi SSW 10.4 mph - N/A   Overcast
10:53 PM 9.0 °F -5.1 °F 3.0 °F 77% 30.14 in 10.0 mi WSW 10.4 mph - N/A   Overcast
11:53 PM 10.0 °F -6.5 °F 3.0 °F 73% 30.14 in 10.0 mi WSW 15.0 mph - N/A   Overcast